sat.trackr.live / text

‹ back to catalog

STARLINK-34076

NORAD 63915 · 2025-095AB

PAYLOAD ACTIVE UNKNOWN

§ Identity

Operator
Country
US
Launch date
2025-05-10
Launch site
AFETR
Launch vehicle
Mass (kg)
RCS (m²)

Purposes: comms

External: N2YO · Heavens-Above · Gunter

§ Orbital elements

Epoch: 2026-05-25T03:48:57.235392Z

Period
94.27 min
Inclination
42.9994°
Eccentricity
0.0001097
Mean motion
15.27594126 rev/d
Perigee alt
482.3 km
Apogee alt
483.8 km
Semi-major
6,861.1 km
B*
5.8303e-4
RAAN
104.2786°
Arg perigee
257.4556°
Mean anomaly
102.6173°
Rev number
5,947

§ Raw data

STARLINK-340761 63915U 25095AB  26145.15899578  .00015823  00000+0  58303-3 0  99952 63915  42.9994 104.2786 0001097 257.4556 102.6173 15.27594126 59479

JSON: /api/v1/satellites/63915 · /tle

For live sub-satellite position, see the globe view (requires WebGL).

§ Visibility from observer

Set your observer location to see the next 7 days of passes ≥ 10°. The values pass through the URL so the page stays shareable.

No JS? Fill the form by hand. The geolocation button needs JavaScript.